sat.trackr.live / text

‹ back to catalog

STARLINK-3979

NORAD 52608 · 2022-052L

PAYLOAD ACTIVE UNKNOWN

§ Identity

Operator
Country
US
Launch date
2022-05-14
Launch site
AFETR
Launch vehicle
Mass (kg)
RCS (m²)

Purposes: comms

External: N2YO · Heavens-Above · Gunter

§ Orbital elements

Epoch: 2026-05-25T03:38:56.791680Z

Period
95.44 min
Inclination
53.2147°
Eccentricity
0.0001358
Mean motion
15.08840742 rev/d
Perigee alt
538.8 km
Apogee alt
540.7 km
Semi-major
6,917.9 km
B*
5.7109e-5
RAAN
295.8682°
Arg perigee
90.4434°
Mean anomaly
269.6714°
Rev number
22,240

§ Raw data

STARLINK-39791 52608U 22052L   26145.15204620  .00000621  00000+0  57109-4 0  99942 52608  53.2147 295.8682 0001358  90.4434 269.6714 15.08840742222400

JSON: /api/v1/satellites/52608 · /tle

For live sub-satellite position, see the globe view (requires WebGL).

§ Visibility from observer

Set your observer location to see the next 7 days of passes ≥ 10°. The values pass through the URL so the page stays shareable.

No JS? Fill the form by hand. The geolocation button needs JavaScript.